Location: Eckley Miners' Village
(40.9930°N, 75.8630°W)
Time: 18:33:02
(UTC-04:00)

Explorer 7 - All Passes

Search period start: 15 May 2026 00:00
Search period end: 25 May 2026 00:00
Orbit: 427 x 536 km, 50.2° (Epoch: 15 May)

Date Brightness Start Highest point End Pass type
(mag) Time Alt. Az. Time Alt. Az. Time Alt. Az.
15 May - 05:29:51 10° SW 05:33:16 49° SE 05:36:48 10° ENE daylight
15 May - 07:08:23 10° W 07:11:41 32° NNW 07:15:06 10° NE daylight
15 May - 08:48:00 10° NW 08:50:48 20° N 08:53:41 10° NE daylight
15 May - 10:26:30 10° NW 10:29:57 31° NNE 10:33:30 10° E daylight
15 May - 12:04:37 10° WNW 12:08:30 65° SW 12:12:28 10° SE daylight
16 May - 05:02:13 10° SSW 05:05:34 44° SE 05:09:02 10° ENE visible
16 May - 06:40:38 10° W 06:43:56 33° NNW 06:47:21 10° NE daylight
16 May - 08:20:15 10° NW 08:23:02 20° N 08:25:53 10° NE daylight
16 May - 09:58:48 10° NW 10:02:11 29° NNE 10:05:40 10° E daylight
16 May - 11:36:54 10° WNW 11:40:46 70° SW 11:44:44 10° SE daylight
16 May - 13:17:37 10° WSW 13:18:31 11° SW 13:19:27 10° SW daylight
17 May - 04:34:34 10° SSW 04:37:51 40° SE 04:41:15 10° ENE visible
17 May - 06:12:52 10° W 06:16:11 35° NNW 06:19:37 10° NE daylight
17 May - 07:52:30 10° NW 07:55:15 19° N 07:58:04 10° NE daylight
17 May - 09:31:06 10° NW 09:34:25 28° NNE 09:37:50 10° E daylight
17 May - 11:09:09 10° WNW 11:13:01 76° SW 11:17:00 10° SE daylight
17 May - 12:49:24 10° WSW 12:50:49 12° SW 12:52:15 10° SSW daylight
18 May - 04:06:55 10° SSW 04:10:09 36° SE 04:13:28 10° ENE visible
18 May - 05:45:06 10° W 05:48:25 37° NNW 05:51:51 10° NE daylight
18 May - 07:24:44 10° NW 07:27:28 19° N 07:30:16 10° NE daylight
18 May - 09:03:23 10° NW 09:06:38 27° NNE 09:09:59 10° ENE daylight
18 May - 10:41:26 10° WNW 10:45:16 82° SW 10:49:14 10° SE daylight
18 May - 12:21:20 10° WSW 12:23:06 13° SW 12:24:54 10° SSW daylight
19 May - 03:39:17 10° SSW 03:42:26 33° SE 03:45:39 10° ENE visible
19 May - 05:17:20 10° W 05:20:39 39° NNW 05:24:06 10° NE daylight
19 May - 06:56:58 10° NW 06:59:40 19° N 07:02:27 10° NE daylight
19 May - 08:35:40 10° NW 08:38:51 26° NNE 08:42:07 10° ENE daylight
19 May - 10:13:41 10° WNW 10:17:30 88° SW 10:21:27 10° SE daylight
19 May - 11:53:21 10° W 11:55:23 14° SW 11:57:27 10° SSW daylight
20 May - 03:11:39 10° SSW 03:14:42 30° SE 03:17:50 10° ENE visible
20 May - 04:49:34 10° W 04:52:53 41° NNW 04:56:20 10° NE visible
20 May - 06:29:11 10° NW 06:31:52 19° N 06:34:38 10° NE daylight
20 May - 08:07:56 10° NW 08:11:03 25° NNE 08:14:16 10° ENE daylight
20 May - 09:45:57 10° NW 09:49:44 86° NNE 09:53:40 10° ESE daylight
20 May - 11:25:23 10° W 11:27:39 15° SW 11:29:56 10° SSW daylight
21 May - 02:44:01 10° SSW 02:46:59 27° SE 02:50:00 10° ENE visible
21 May - 04:21:46 10° W 04:25:06 43° NNW 04:28:34 10° NE visible
21 May - 06:01:23 10° NW 06:04:04 19° N 06:06:49 10° NE daylight
21 May - 07:40:12 10° NW 07:43:15 24° NNE 07:46:23 10° ENE daylight
21 May - 09:18:11 10° NW 09:21:58 80° NNE 09:25:51 10° ESE daylight
21 May - 10:57:27 10° W 10:59:54 16° SW 11:02:22 10° S daylight
22 May - 02:16:23 10° SSW 02:19:14 25° SE 02:22:09 10° E visible
22 May - 03:53:59 10° WSW 03:57:19 46° NNW 04:00:47 10° NE visible
22 May - 05:33:34 10° NW 05:36:15 20° N 05:38:59 10° NE daylight
22 May - 07:12:27 10° NW 07:15:26 23° NNE 07:18:29 10° ENE daylight
22 May - 08:50:27 10° NW 08:54:10 74° NNE 08:58:02 10° ESE daylight
22 May - 10:29:33 10° W 10:32:08 18° SW 10:34:48 10° S daylight
23 May - 01:48:45 10° S 01:51:29 23° SE 01:54:17 10° E visible
23 May - 03:26:11 10° WSW 03:29:33 49° NNW 03:33:00 10° NE visible
23 May - 05:05:45 10° WNW 05:08:26 20° N 05:11:10 10° NE visible
23 May - 06:44:42 10° NW 06:47:36 22° NNE 06:50:36 10° ENE daylight
23 May - 08:22:40 10° NW 08:26:22 68° NNE 08:30:12 10° ESE daylight
23 May - 10:01:39 10° W 10:04:23 19° SW 10:07:10 10° S daylight
24 May - 01:21:07 10° S 01:23:44 21° SE 01:26:23 10° E visible
24 May - 02:58:23 10° WSW 03:01:45 53° NNW 03:05:12 10° NE visible
24 May - 04:37:56 10° WNW 04:40:35 20° N 04:43:20 10° NE visible
24 May - 06:16:56 10° NW 06:19:47 21° NNE 06:22:43 10° ENE daylight
24 May - 07:54:55 10° NW 07:58:34 63° NNE 08:02:21 10° ESE daylight
24 May - 09:33:45 10° W 09:36:36 20° SW 09:39:31 10° S daylight
